• In Portugal
  • List of Countries
  • For 7 days
  • Water Temperature
  • Satellite Maps
  • Weather Map
  • Weather Widgets
  • user-avatar
    Login

    Hourly Weather Ankara

    Today, 23 October, Monday

    Time Temperature Precipitation Wind Pressure Humidity
    00:00 +13°C° 0 mm 1 mps 684 mmHg 50%
    01:00 +11°C° 0 mm 0 mps 684 mmHg 51%
    02:00 +11°C° 0 mm 0 mps 683 mmHg 53%
    03:00 +11°C° 0 mm 0 mps 683 mmHg 53%
    04:00 +10°C° 0 mm 0 mps 683 mmHg 53%
    05:00 +11°C° 0 mm 1 mps 683 mmHg 54%
    06:00 +12°C° 0 mm 1 mps 683 mmHg 49%
    07:00 +14°C° 0 mm 1 mps 683 mmHg 45%
    08:00 +15°C° 0 mm 1 mps 684 mmHg 41%
    09:00 +18°C° 0 mm 1 mps 684 mmHg 36%
    10:00 +18°C° 0 mm 2 mps 683 mmHg 32%
    11:00 +20°C° 0 mm 2 mps 683 mmHg 28%
    12:00 +20°C° 0 mm 3 mps 683 mmHg 26%
    13:00 +21°C° 0 mm 3 mps 683 mmHg 25%
    14:00 +22°C° 0 mm 4 mps 682 mmHg 23%
    15:00 +21°C° 0 mm 3 mps 682 mmHg 26%
    16:00 +20°C° 0 mm 2 mps 681 mmHg 28%
    17:00 +18°C° 0 mm 2 mps 681 mmHg 30%
    18:00 +19°C° 0 mm 1 mps 681 mmHg 31%
    19:00 +18°C° 0 mm 1 mps 681 mmHg 32%
    20:00 +16°C° 0 mm 1 mps 680 mmHg 33%
    21:00 +16°C° 0 mm 2 mps 680 mmHg 35%
    22:00 +15°C° 0 mm 2 mps 680 mmHg 36%
    23:00 +15°C° 0 mm 2 mps 680 mmHg 37%

    Tomorrow, 24 October, Tuesday

    Time Temperature Precipitation Wind Pressure Humidity
    00:00 +15°C° 0 mm 2 mps 680 mmHg 40%
    01:00 +14°C° 0 mm 2 mps 680 mmHg 44%
    02:00 +14°C° 0 mm 2 mps 680 mmHg 48%
    03:00 +13°C° 0 mm 2 mps 680 mmHg 52%
    04:00 +13°C° 0 mm 2 mps 680 mmHg 56%
    05:00 +13°C° 0 mm 2 mps 680 mmHg 60%
    06:00 +13°C° 0 mm 2 mps 680 mmHg 59%
    07:00 +14°C° 0 mm 2 mps 681 mmHg 59%
    08:00 +15°C° 0 mm 2 mps 681 mmHg 58%
    09:00 +16°C° 0 mm 3 mps 681 mmHg 52%
    10:00 +18°C° 0 mm 4 mps 681 mmHg 45%
    11:00 +19°C° 0 mm 5 mps 682 mmHg 39%
    12:00 +20°C° 0 mm 5 mps 681 mmHg 36%
    13:00 +21°C° 0 mm 6 mps 681 mmHg 34%
    14:00 +22°C° 0 mm 6 mps 681 mmHg 32%
    15:00 +21°C° 0 mm 5 mps 681 mmHg 34%
    16:00 +20°C° 0 mm 4 mps 681 mmHg 37%
    17:00 +19°C° 0 mm 3 mps 681 mmHg 40%
    18:00 +18°C° 0.1 mm 2 mps 681 mmHg 43%
    19:00 +18°C° 0.1 mm 2 mps 681 mmHg 46%
    20:00 +17°C° 0.1 mm 2 mps 682 mmHg 49%
    21:00 +17°C° 0.2 mm 2 mps 682 mmHg 52%
    22:00 +16°C° 0.2 mm 2 mps 682 mmHg 56%
    23:00 +16°C° 0.2 mm 2 mps 682 mmHg 59%

    Day after tomorrow, 25 October, Wednesday

    Time Temperature Precipitation Wind Pressure Humidity
    00:00 +15°C° 0.5 mm 2 mps 682 mmHg 62%
    01:00 +15°C° 0.5 mm 2 mps 682 mmHg 65%
    02:00 +14°C° 0.5 mm 2 mps 682 mmHg 67%
    03:00 +14°C° 0.4 mm 1 mps 682 mmHg 67%
    04:00 +14°C° 0.4 mm 1 mps 682 mmHg 67%
    05:00 +14°C° 0.4 mm 1 mps 682 mmHg 67%
    06:00 +14°C° 0.7 mm 2 mps 683 mmHg 66%
    07:00 +14°C° 0.7 mm 2 mps 683 mmHg 65%
    08:00 +15°C° 0.7 mm 2 mps 684 mmHg 65%
    09:00 +14°C° 1.7 mm 2 mps 684 mmHg 69%
    10:00 +14°C° 1.7 mm 2 mps 684 mmHg 74%
    11:00 +14°C° 1.7 mm 2 mps 684 mmHg 78%
    12:00 +14°C° 0.1 mm 2 mps 684 mmHg 75%
    13:00 +14°C° 0.1 mm 3 mps 684 mmHg 72%
    14:00 +16°C° 0.1 mm 3 mps 684 mmHg 69%
    15:00 +16°C° 0.3 mm 2 mps 684 mmHg 72%
    16:00 +15°C° 0.3 mm 2 mps 684 mmHg 75%
    17:00 +15°C° 0.3 mm 1 mps 684 mmHg 77%
    18:00 +15°C° 0.9 mm 2 mps 685 mmHg 80%
    19:00 +14°C° 0.9 mm 2 mps 685 mmHg 82%
    20:00 +14°C° 0.9 mm 2 mps 685 mmHg 85%
    21:00 +14°C° 1.2 mm 2 mps 685 mmHg 86%
    22:00 +14°C° 1.2 mm 2 mps 685 mmHg 87%
    23:00 +13°C° 1.2 mm 2 mps 685 mmHg 88%

    26 October, Thursday

    Time Temperature Precipitation Wind Pressure Humidity
    00:00 +13°C° 0.8 mm 2 mps 685 mmHg 89%
    01:00 +13°C° 0.8 mm 2 mps 685 mmHg 89%
    02:00 +13°C° 0.8 mm 2 mps 685 mmHg 90%
    03:00 +12°C° 0.5 mm 2 mps 685 mmHg 91%
    04:00 +12°C° 0.5 mm 2 mps 685 mmHg 92%
    05:00 +12°C° 0.5 mm 2 mps 685 mmHg 92%
    06:00 +12°C° 0.1 mm 2 mps 686 mmHg 90%
    07:00 +12°C° 0.1 mm 2 mps 686 mmHg 87%
    08:00 +12°C° 0.1 mm 2 mps 687 mmHg 85%
    09:00 +12°C° 0.1 mm 3 mps 687 mmHg 81%
    10:00 +12°C° 0.1 mm 3 mps 687 mmHg 77%
    11:00 +13°C° 0.1 mm 3 mps 688 mmHg 74%
    12:00 +13°C° 0.1 mm 3 mps 688 mmHg 72%
    13:00 +14°C° 0.1 mm 3 mps 688 mmHg 69%
    14:00 +14°C° 0.1 mm 4 mps 688 mmHg 67%
    15:00 +13°C° 0 mm 3 mps 688 mmHg 69%
    16:00 +13°C° 0 mm 3 mps 688 mmHg 71%
    17:00 +12°C° 0 mm 3 mps 688 mmHg 72%
    18:00 +12°C° 0 mm 3 mps 688 mmHg 74%
    19:00 +13°C° 0 mm 2 mps 689 mmHg 76%
    20:00 +12°C° 0 mm 2 mps 689 mmHg 77%
    21:00 +12°C° 0 mm 2 mps 689 mmHg 79%
    22:00 +10°C° 0 mm 2 mps 689 mmHg 80%
    23:00 +11°C° 0 mm 1 mps 689 mmHg 82%

    27 October, Friday

    Time Temperature Precipitation Wind Pressure Humidity
    00:00 +11°C° 0 mm 1 mps 689 mmHg 82%
    01:00 +10°C° 0 mm 1 mps 689 mmHg 82%
    02:00 +10°C° 0 mm 1 mps 688 mmHg 82%
    03:00 +10°C° 0 mm 1 mps 688 mmHg 83%
    04:00 +9°C° 0 mm 0 mps 688 mmHg 84%
    05:00 +9°C° 0 mm 0 mps 688 mmHg 85%
    06:00 +10°C° 0 mm 0 mps 688 mmHg 83%
    07:00 +10°C° 0 mm 0 mps 688 mmHg 80%
    08:00 +12°C° 0 mm 1 mps 688 mmHg 78%
    09:00 +13°C° 0 mm 1 mps 687 mmHg 73%
    10:00 +14°C° 0 mm 1 mps 687 mmHg 69%
    11:00 +15°C° 0 mm 1 mps 687 mmHg 64%
    12:00 +15°C° 0 mm 1 mps 686 mmHg 61%
    13:00 +16°C° 0 mm 1 mps 686 mmHg 57%
    14:00 +16°C° 0 mm 2 mps 685 mmHg 54%
    15:00 +16°C° 0 mm 1 mps 685 mmHg 57%
    16:00 +15°C° 0 mm 1 mps 684 mmHg 60%
    17:00 +15°C° 0 mm 1 mps 684 mmHg 63%
    18:00 +14°C° 0 mm 1 mps 684 mmHg 65%
    19:00 +13°C° 0 mm 1 mps 683 mmHg 68%
    20:00 +13°C° 0 mm 1 mps 683 mmHg 71%
    21:00 +12°C° 0 mm 1 mps 683 mmHg 72%
    22:00 +12°C° 0 mm 1 mps 682 mmHg 73%
    23:00 +12°C° 0 mm 1 mps 682 mmHg 74%

    28 October, Saturday

    Time Temperature Precipitation Wind Pressure Humidity
    00:00 +11°C° 0 mm 1 mps 682 mmHg 74%
    01:00 +11°C° 0 mm 1 mps 681 mmHg 75%
    02:00 +11°C° 0 mm 1 mps 681 mmHg 75%
    03:00 +11°C° 0 mm 1 mps 681 mmHg 76%
    04:00 +11°C° 0 mm 1 mps 681 mmHg 76%
    05:00 +10°C° 0 mm 1 mps 680 mmHg 77%
    06:00 +11°C° 0 mm 1 mps 681 mmHg 72%
    07:00 +12°C° 0 mm 1 mps 681 mmHg 68%
    08:00 +13°C° 0 mm 1 mps 681 mmHg 64%
    09:00 +14°C° 0 mm 2 mps 681 mmHg 57%
    10:00 +16°C° 0 mm 3 mps 681 mmHg 51%
    11:00 +17°C° 0 mm 4 mps 682 mmHg 44%
    12:00 +18°C° 0 mm 4 mps 681 mmHg 42%
    13:00 +17°C° 0 mm 5 mps 681 mmHg 40%
    14:00 +17°C° 0 mm 5 mps 681 mmHg 38%
    15:00 +17°C° 0 mm 4 mps 680 mmHg 42%
    16:00 +16°C° 0 mm 3 mps 680 mmHg 45%
    17:00 +15°C° 0 mm 2 mps 680 mmHg 48%
    18:00 +15°C° 0 mm 2 mps 680 mmHg 50%
    19:00 +14°C° 0 mm 2 mps 681 mmHg 52%
    20:00 +14°C° 0 mm 1 mps 681 mmHg 53%
    21:00 +13°C° 0 mm 1 mps 681 mmHg 54%
    22:00 +13°C° 0 mm 1 mps 681 mmHg 54%
    23:00 +13°C° 0 mm 1 mps 682 mmHg 54%
    Show more